This is the latest recevied weather packets stored in our database for station/object KM5R. If no packets are shown the sender has not sent any weather packets the latest 10 day(s).
| Time | Temp. | Humidity | Pressure | Rain* | Wind** | Luminosity | Snow |
|---|---|---|---|---|---|---|---|
| 1777933238 | 27.78° C | 54% | 1009.7 hPa | 0 mm | - | 449 W/m² | - |
| 1777932936 | 27.78° C | 55% | 1009.7 hPa | 0 mm | - | 390 W/m² | - |
| 1777932632 | 27.78° C | 55% | 1009.9 hPa | 0 mm | - | 365 W/m² | - |
| 1777932329 | 27.78° C | 55% | 1009.8 hPa | 0 mm | - | 336 W/m² | - |
| 1777932026 | 27.78° C | 54% | 1009.8 hPa | 0 mm | - | 376 W/m² | - |
| 1777931722 | 27.78° C | 54% | 1010 hPa | 0 mm | - | 342 W/m² | - |
| 1777931420 | 27.78° C | 55% | 1010 hPa | 0 mm | - | 434 W/m² | - |
| 1777931116 | 27.78° C | 56% | 1010.1 hPa | 0 mm | - | 323 W/m² | - |
| 1777930812 | 27.78° C | 54% | 1010.3 hPa | 0 mm | - | 487 W/m² | - |
| 1777930509 | 27.22° C | 57% | 1010.2 hPa | 0 mm | - | 489 W/m² | - |
| 1777930206 | 27.22° C | 56% | 1010.3 hPa | 0 mm | - | 420 W/m² | - |
| 1777929902 | 27.22° C | 55% | 1010.4 hPa | 0 mm | - | 611 W/m² | - |
| 1777929599 | 26.67° C | 57% | 1010.6 hPa | 0 mm | - | 519 W/m² | - |
| 1777929296 | 27.22° C | 56% | 1010.7 hPa | 0 mm | - | 442 W/m² | - |
| 1777928993 | 27.22° C | 55% | 1010.7 hPa | 0 mm | - | 566 W/m² | - |
| 1777928690 | 26.67° C | 57% | 1011 hPa | 0 mm | - | 638 W/m² | - |
| 1777928387 | 26.11° C | 57% | 1010.8 hPa | 0 mm | - | 508 W/m² | - |
| 1777928084 | 26.67° C | 57% | 1011 hPa | 0 mm | - | 395 W/m² | - |
| 1777927782 | 26.67° C | 57% | 1011.1 hPa | 0 mm | - | 350 W/m² | - |
| 1777927480 | 26.67° C | 57% | 1011.2 hPa | 0 mm | - | 515 W/m² | - |
| 1777927180 | 26.11° C | 58% | 1011.2 hPa | 0 mm | - | 502 W/m² | - |
| 1777926877 | 26.11° C | 58% | 1011.4 hPa | 0 mm | - | 511 W/m² | - |
| 1777926573 | 26.11° C | 58% | 1011.6 hPa | 0 mm | - | 601 W/m² | - |
| 1777926269 | 26.11° C | 58% | 1011.9 hPa | 0 mm | - | 575 W/m² | - |
| 1777925966 | 26.11° C | 58% | 1011.7 hPa | 0 mm | - | 417 W/m² | - |
* Rain latest hour (hover to see other rain measurements)
** Current wind speed in m/s (hover to see current wind gust speed)